FW3322 Weather Reports


Display with metric or nautical units.
time (UTC)temp
F
wind
direction
speed
MPH
gust
MPH
rain 1hr
in
rain 24hr
in
rain mn
in
humidity
%
barometer
mb
20260901110007 0 0.0 0.0 0.00 0.00 0.00 1016.0
20260901104503 0 0.0 0.0 0.00 0.00 0.00 1016.0
20260901103123 73 136 1.0 3.0 0.00 0.00 0.00 79 1015.8
20260901101601 73 132 1.0 2.0 0.00 0.00 0.00 79 1015.7
20260901100058 73 136 2.0 3.0 0.00 0.00 0.00 79 1015.7
20260901094555 73 133 2.0 4.0 0.00 0.00 0.00 79 1015.6
20260901093124 73 131 2.0 2.0 0.00 0.00 0.00 79 1015.6
20260901091604 73 128 1.0 2.0 0.00 0.00 0.00 80 1015.5
20260901090051 73 128 0.0 1.0 0.00 0.00 0.00 80 1015.4
20260901084551 73 277 0.0 0.0 0.00 0.00 0.00 80 1015.3
20260901083051 74 279 0.0 0.0 0.00 0.00 0.00 79 1015.3
20260901081550 75 279 0.0 0.0 0.00 0.00 0.00 76 1015.3
20260901080050 75 279 0.0 0.0 0.00 0.00 0.00 74 1015.2
20260901074548 74 182 0.0 0.0 0.00 0.00 0.00 77 1015.1
20260901073047 74 112 0.0 0.0 0.00 0.00 0.00 80 1015.1
20260901071548 73 111 0.0 0.0 0.00 0.00 0.00 82 1015.1
20260901070055 73 107 0.0 0.0 0.00 0.00 0.00 83 1015.2
20260901064544 74 107 0.0 0.0 0.00 0.00 0.00 81 1015.3
20260901063043 74 107 0.0 0.0 0.00 0.00 0.00 82 1015.4
20260901061542 75 123 0.0 0.0 0.00 0.00 0.00 78 1015.4
20260901060041 75 123 0.0 0.0 0.00 0.00 0.00 76 1015.4
20260901054539 75 123 0.0 0.0 0.00 0.00 0.00 76 1015.3
20260901053038 76 123 0.0 0.0 0.00 0.00 0.00 76 1015.1
20260901051537 75 123 0.0 0.0 0.00 0.00 0.00 77 1015.2
20260901050033 75 173 0.0 0.0 0.00 0.00 0.00 79 1015.1
20260901044530 75 111 1.0 4.0 0.00 0.00 0.00 81 1014.9
20260901043030 76 207 0.0 0.0 0.00 0.00 0.00 79 1014.7
20260901041529 76 207 0.0 0.0 0.00 0.00 0.00 78 1014.6
20260901040030 77 207 0.0 0.0 0.00 0.00 0.00 77 1014.7
20260901034528 77 207 0.0 0.0 0.00 0.00 0.00 76 1014.7
20260901033043 77 207 0.0 0.0 0.00 0.00 0.00 76 1014.6
20260901031527 78 207 0.0 0.0 0.00 0.00 0.00 73 1014.5
20260901030027 79 207 0.0 0.0 0.00 0.00 0.00 71 1014.4
20260901024528 80 207 0.0 0.0 0.00 0.00 0.00 69 1014.3
20260901023029 81 207 0.0 0.0 0.00 0.00 0.00 67 1014.2
20260901021526 82 207 0.0 0.0 0.00 0.00 0.00 66 1014.1
20260901020024 83 207 0.0 0.0 0.00 0.00 0.00 64 1014.0
20260901014525 84 207 0.0 0.0 0.00 0.00 0.00 63 1013.7
20260901013023 86 207 0.0 0.0 0.00 0.00 0.00 61 1013.5
20260901011523 88 229 0.0 0.0 0.00 0.00 0.00 58 1013.4
20260901010022 91 229 0.0 0.0 0.00 0.00 0.00 53 1013.3
20260901004521 93 229 0.0 0.0 0.00 0.00 0.00 50 1013.2
20260901003021 94 219 0.0 1.0 0.00 0.00 0.00 48 1013.2
20260901001528 96 229 0.0 6.0 0.00 0.00 0.00 45 1013.2
20260901000022 98 239 1.0 5.0 0.00 0.00 0.00 44 1013.2
20260831234533 98 221 1.0 5.0 0.00 0.00 0.00 44 1013.2
20260831233018 99 180 2.0 9.0 0.00 0.00 0.00 43 1013.2
20260831231518 99 213 3.0 9.0 0.00 0.00 0.00 43 1013.1
20260831230019 100 251 3.0 8.0 0.00 0.00 0.00 42 1013.1
20260831224516 100 226 4.0 9.0 0.00 0.00 0.00 42 1013.1
20260831223017 100 153 4.0 9.0 0.00 0.00 0.00 42 1013.2
20260831221524 101 215 5.0 10.0 0.00 0.00 0.00 41 1013.3
20260831220021 101 270 5.0 12.0 0.00 0.00 0.00 42 1013.4
20260831214512 101 221 5.0 10.0 0.00 0.00 0.00 41 1013.5
20260831213029 100 153 4.0 13.0 0.00 0.00 0.00 42 1013.5
20260831211515 101 213 2.0 12.0 0.00 0.00 0.00 41 1013.6
20260831210010 101 137 4.0 12.0 0.00 0.00 0.00 41 1013.6
20260831204510 101 148 6.0 14.0 0.00 0.00 0.00 40 1013.9
20260831203008 102 165 3.0 8.0 0.00 0.00 0.00 40 1013.9
20260831201512 101 208 8.0 13.0 0.00 0.00 0.00 41 1014.0
20260831200007 101 164 4.0 9.0 0.00 0.00 0.00 41 1014.1
20260831194505 102 170 5.0 10.0 0.00 0.00 0.00 42 1014.4
20260831193003 101 209 5.0 22.0 0.00 0.00 0.00 42 1014.5
20260831191600 100 277 5.0 12.0 0.00 0.00 0.00 42 1014.7
20260831190136 100 164 6.0 10.0 0.00 0.00 0.00 44 1014.8
20260831184556 100 221 4.0 11.0 0.00 0.00 0.00 44 1014.9
20260831183056 99 205 5.0 13.0 0.00 0.00 0.00 45 1015.1
20260831181558 100 189 4.0 11.0 0.00 0.00 0.00 44 1015.3
20260831180050 99 242 3.0 10.0 0.00 0.00 0.00 45 1015.4
20260831174550 98 125 3.0 13.0 0.00 0.00 0.00 48 1015.6
20260831173042 98 148 3.0 9.0 0.00 0.00 0.00 49 1015.9
20260831171538 97 118 2.0 9.0 0.00 0.00 0.00 49 1016.1
20260831170038 96 175 4.0 10.0 0.00 0.00 0.00 50 1016.3
20260831164528 96 224 3.0 9.0 0.00 0.00 0.00 50 1016.4
20260831163025 94 171 4.0 9.0 0.00 0.00 0.00 53 1016.2
20260831161521 93 194 4.0 9.0 0.00 0.00 0.00 53 1016.3
20260831160034 92 148 4.0 9.0 0.00 0.00 0.00 54 1016.4
20260831154511 92 206 2.0 10.0 0.00 0.00 0.00 55 1016.5
20260831153020 90 193 4.0 11.0 0.00 0.00 0.00 56 1016.5
20260831151505 89 224 5.0 11.0 0.00 0.00 0.00 58 1016.5
20260831150003 88 177 3.0 11.0 0.00 0.00 0.00 59 1016.5
20260831144606 88 331 3.0 10.0 0.00 0.00 0.00 61 1016.5
20260831143101 87 223 4.0 11.0 0.00 0.00 0.00 61 1016.5
20260831141554 86 211 3.0 8.0 0.00 0.00 0.00 62 1016.5
20260831140050 84 153 4.0 7.0 0.00 0.00 0.00 64 1016.5
20260831134548 83 169 1.0 6.0 0.00 0.00 0.00 65 1016.4
20260831133047 83 169 1.0 4.0 0.00 0.00 0.00 65 1016.6
20260831131547 82 160 0.0 0.0 0.00 0.00 0.00 66 1016.4
20260831130044 79 153 0.0 0.0 0.00 0.00 0.00 70 1016.2
20260831124538 76 137 0.0 1.0 0.00 0.00 0.00 74 1016.0
20260831123043 0 0.0 0.0 0.00 0.00 0.00 1015.7
20260831121537 0 0.0 0.0 0.00 0.00 0.00 1015.5
20260831120046 0 0.0 0.0 0.00 0.00 0.00 1015.3
20260831114526 0 0.0 0.0 0.00 0.00 0.00 1015.0
20260831113022 0 0.0 0.0 0.00 0.00 0.00 1014.9
20260831111513 0 0.0 0.0 0.00 0.00 0.00 1014.9